COSMOS 886 DEB *, 13943

Orbit data source: Space-Track

COSMOS 886 DEB *, 13943 is space debris in LEO originally from a launch on Mon, 27 Dec 1976 UTC launched from the Tyuratam Missile And Space Complex (TTMTR). Debris objects in space refer to the collection of defunct objects orbiting the Earth. Examples of debris include non-operational satellites, rocket bodies, and fragments generated from explosions, collisions, or faulty payload assembly.

Loading next visibility...
Identifier
13943, 1976-126BM
Orbit
LEO
Country
Flag of CISCIS
Related business
Manufacturer
Unknown
Mission
Spacecraft
Bus & Motor
Unknown
Mass
Unknown
Launch date (UTC)
1976-12-27 (49 years ago)
Launch vehicle
Unknown
Launch site
Tyuratam Missile And Space Complex (TTMTR)
Object type
Payload
Rocket body
Debris
Shape & HBR
Unknown shape, 0.1 m
Radar Cross Section
Medium (>0.1 m² and <1 m²)

Expand to show TLE details & history
Last TLE update: 1 day ago

TLE from 1 day ago
0 COSMOS 886 DEB *
1 13943U 76126BM  26175.01273396  .00002846  00000-0  95464-3 0  9995
2 13943  65.5740 275.5119 0069242 283.2774 253.1104 14.37462289144297
Epoch: 2026-06-24T00:18Z
TLE epoch observation values (Epoch: 2026-06-24T00:18:20.214Z)
Latitude
3.90217°
Longitude
176.9858°
Altitude
783.186 km
Speed
7.455 km/s
True Right ascension
06h 14m 59s
True Declination
3° 52' 44"
Sunlit
Object was in daylight at epoch
Visualization orbit readout
Latitude
Unknown
Longitude
Unknown
Altitude
Unknown
Speed
Unknown
Apparent Right ascension
Unknown
Apparent Declination
Unknown
Sunlit
N/A
Visualization observer readout
Local Sidereal Time
13:16:25
Azimuth
Unknown
Elevation
Unknown
Doppler factor
Unknown
Orbital elements
Apogee altitude
814.862 km
Perigee altitude
715.936 km
Semi-major axis
7,143.536 km
Eccentricity
0.00692
Inclination
65.574°
RAAN
275.5119°
Arg. of periapsis
283.2774°
True anomaly
252.3531°
Mean anomaly
253.1104°
Eccentric anomaly
252.73156°
Mean motion
3.59479 °/min
Orbital period
100.14 mins
BSTAR
0.00095464
Loading maneuver chart data...
Computing Atmospheric mass density...
Loading historical data...
Loading historical data...
Loading historical data...
Loading historical data...
Loading historical data...
Loading historical data...
Loading historical data...

Documentation

Showing up to 5 results
|